Weather in Gorohovec

Russia / Vladimir Oblast     56°12′06″N   42°41′28″E
temp.,
°C
wind,
m/s
gust,
m/s
humid.,
%
clouds,
%
prec.,
mm/h
press.,
hPa
HPBL,
m
3 august, tue
tue300:00+21sse4146823 0.3 1006282
03:00+20ssw4147411 0.3 1005342
06:00+20sw268078 0.0 1006193
09:00+23sw4768100 0.3 1007571
12:00+24sw4766100 0.1 1008873
15:00+24ssw356955 0.6 1008973
18:00+22nw476166 0.0 1007395
21:00+20w2568100 0.0 1009148
4 august, wed
wed400:00+17wnw35745 0.0 101192
03:00+15w247895 0.0 101172
06:00+16wnw2773100 0.0 1013216
09:00+21wnw345185 0.0 1014675
12:00+24wnw453765 0.0 10132253
15:00+24wnw453326 0.0 10142378
18:00+21wnw234856 0.0 1014156
21:00+16w385858 0.0 1015127
5 august, thu
thu500:00+17nnw265922 0.0 1016135
03:00+16nne266091 0.0 1016145
06:00+16nnw1258100 0.0 101745
09:00+20nnw224439 0.0 1018582
12:00+24wnw233399 0.0 10182148
15:00+24w2333100 0.0 10172111
18:00+23nne224369 0.0 1017398
21:00+17e3354100 0.0 101751
6 august, fri
fri600:00+17ese3851100 0.0 1017178
03:00+16e1254100 0.0 101631
06:00+14e2373100 0.4 101752
09:00+13e4894100 2.4 1016228
12:00+14se4991100 1.3 1016332
15:00+14se3894100 3.1 1016354
18:00+15sse2797100 3.8 1015301
21:00+15se2296100 5.2 101565
7 august, sat
sat700:00+15n2396100 0.5 101672
03:00+15ene3896100 1.9 1015217
06:00+15e4897100 0.8 1014230
09:00+18se238398 1.8 1015283
12:00+22ese0167100 0.3 1015600
15:00+23e226184 0.3 1015655
18:00+22ne466774 0.0 1016453
21:00+17ne4108615 0.0 1017271